Sisseton, SD

6:31 PM CST on February 19, 2018 (GMT -0600)
Sisseton

Weather History for K8D3 - November, 2012

Change the Weather History Date:

Monday, November 26, 2012

  Actual Average Record
Temperature  
Mean Temperature 16 °F 25 °F  
Max Temperature 27 °F 34 °F 60 °F (1998)
Min Temperature 5 °F 16 °F -14 °F (1996)
Degree Days  
Heating Degree Days 49 40  
Month to date heating degree days 822 859  
Since 1 July heating degree days 1695 1686  
Cooling Degree Days 0 0  
Month to date cooling degree days 0 0  
Year to date cooling degree days 712 527  
Moisture  
Dew Point 6 °F    
Average Humidity 69    
Maximum Humidity 88    
Minimum Humidity 50    
Precipitation  
Precipitation 0.00 in 0.01 in 0.50 in (2001)
Month to date precipitation 0.27 0.55  
Year to date precipitation 16.77 21.91  
Snow  
Snow 0.00 in - - ()
Month to date snowfall T  
Since 1 July snowfall T  
Snow Depth 0.00 in    
Sea Level Pressure  
Sea Level Pressure 30.43 in    
Wind  
Wind Speed 11 mph (NW)    
Max Wind Speed 25 mph    
Max Gust Speed 35 mph    
T = Trace of Precipitation, MM = Missing Value Source: NWS Daily Summary

Daily Weather History Graph

Daily Weather History Graph

Search for Another Location

Airport or City:

Trip Planner

Search our weather history database for the weather conditions in past years. The results will help you decide how hot, cold, wet, or windy it might be!

Date:

Astronomy

Nov. 26, 2012 Rise Set
Actual Time 7:42 AM CST 4:47 PM CST
Civil Twilight 7:09 AM CST 5:21 PM CST
Nautical Twilight 6:32 AM CST 5:57 PM CST
Astronomical Twilight 5:57 AM CST 6:33 PM CST
Moon 3:43 PM CST (11/26) 5:50 AM CST (11/26)
Length of Visible Light 10h 11m
Length of Day
9h 04m
Waxing Gibbous, 97% of the Moon is Illuminated
Nov 26
Waxing Gibbous
Nov 28
Full
Dec 6
Last Quarter
Dec 13
New
Dec 19
First Quarter

Hourly Weather History & Observations

Time (CST) Temp. Windchill Dew Point Humidity Pressure Visibility Wind Dir Wind Speed Gust Speed Precip Events Conditions
12:56 AM 15.1 °F 1.1 °F 7.0 °F 70% 30.38 in - North 12.7 mph - N/A   Unknown
1:56 AM 14.0 °F -0.2 °F 6.1 °F 71% 30.38 in - NNE 12.7 mph - N/A   Unknown
2:56 AM 12.0 °F 0.5 °F 7.0 °F 80% 30.42 in - NE 8.1 mph - N/A   Unknown
3:56 AM 12.0 °F 1.5 °F 6.1 °F 77% 30.44 in - North 6.9 mph - N/A   Unknown
4:56 AM 10.9 °F -4.1 °F 5.0 °F 77% 30.45 in - NNE 12.7 mph - N/A   Unknown
5:56 AM 9.0 °F -3.2 °F 5.0 °F 84% 30.47 in - North 8.1 mph - N/A   Unknown
6:56 AM 7.0 °F -3.3 °F 3.0 °F 84% 30.51 in - North 5.8 mph - N/A   Unknown
7:56 AM 5.0 °F -4.1 °F 1.9 °F 87% 30.53 in - NNW 4.6 mph - N/A   Unknown
8:56 AM 9.0 °F -5.9 °F 3.9 °F 80% 30.54 in - NNW 11.5 mph - N/A   Unknown
9:56 AM 12.0 °F -2.0 °F 3.9 °F 70% 30.55 in - North 11.5 mph - N/A   Unknown
10:56 AM 15.1 °F 4.2 °F 5.0 °F 64% 30.55 in - NW 8.1 mph - N/A   Unknown
11:56 AM 19.0 °F 9.0 °F 5.0 °F 54% 30.51 in - NW 8.1 mph - N/A   Unknown
12:56 PM 21.9 °F 12.5 °F 6.1 °F 51% 30.48 in - WNW 8.1 mph - N/A   Unknown
1:56 PM 23.0 °F 13.1 °F 6.1 °F 48% 30.47 in - WNW 9.2 mph - N/A   Unknown
2:56 PM 23.0 °F 13.1 °F 6.1 °F 48% 30.45 in - WNW 9.2 mph - N/A   Unknown
3:56 PM 23.0 °F 13.1 °F 6.1 °F 48% 30.44 in - West 9.2 mph - N/A   Unknown
4:56 PM 21.0 °F 11.4 °F 6.1 °F 53% 30.43 in - WSW 8.1 mph - N/A   Unknown
5:56 PM 21.0 °F 10.6 °F 7.0 °F 55% 30.43 in - WSW 9.2 mph - N/A   Unknown
6:56 PM 21.9 °F 9.2 °F 6.1 °F 51% 30.40 in - WSW 13.8 mph 23.0 mph N/A   Unknown
7:56 PM 21.9 °F 11.7 °F 8.1 °F 55% 30.37 in - WSW 9.2 mph - N/A   Unknown
8:56 PM 23.0 °F 7.2 °F 9.0 °F 55% 30.34 in - West 23.0 mph 28.8 mph N/A   Unknown
9:56 PM 23.0 °F 8.3 °F 10.0 °F 58% 30.32 in - WSW 19.6 mph 27.6 mph N/A   Unknown
10:56 PM 24.1 °F 10.6 °F 10.9 °F 57% 30.30 in - West 17.3 mph 28.8 mph N/A   Unknown
11:56 PM 27.0 °F 12.5 °F 14.0 °F 58% 30.28 in - West 23.0 mph 29.9 mph N/A   Unknown